Sierra Vista, AZ

12:01 PM MST on June 22, 2017 (GMT -0700)
Sierra Vista Municipal-Libby Army Air Field

Weather History for KFHU - January, 2013

Change the Weather History Date:

Monday, January 7, 2013

  Actual Average Record
Temperature  
Mean Temperature 42 °F -  
Max Temperature 53 °F 59 °F 71 °F (1999)
Min Temperature 32 °F 37 °F 20 °F (1990)
Degree Days  
Heating Degree Days 22    
Moisture  
Dew Point 20 °F    
Average Humidity 44    
Maximum Humidity 64    
Minimum Humidity 15    
Precipitation  
Precipitation 0.00 in - - ()
Sea Level Pressure  
Sea Level Pressure 29.84 in    
Wind  
Wind Speed 4 mph (West)    
Max Wind Speed 17 mph    
Max Gust Speed -    
Visibility 10 miles    
Events      
Averages and records for this station are not official NWS values.
T = Trace of Precipitation, MM = Missing Value Source: NWS Daily Summary

Daily Weather History Graph

Daily Weather History Graph

Search for Another Location

Airport or City:

Trip Planner

Search our weather history database for the weather conditions in past years. The results will help you decide how hot, cold, wet, or windy it might be!

Date:

Astronomy

Jan. 07, 2013 Rise Set
Actual Time 7:21 AM MST 5:34 PM MST
Civil Twilight 6:55 AM MST 6:00 PM MST
Nautical Twilight 6:25 AM MST 6:30 PM MST
Astronomical Twilight 5:55 AM MST 7:00 PM MST
Moon 2:53 AM MST (1/7) 1:44 PM MST (1/7)
Length of Visible Light 11h 05m
Length of Day
10h 12m
Waning Crescent, 22% of the Moon is Illuminated
Jan 7
Waning Crescent
Jan 11
New
Jan 18
First Quarter
Jan 26
Full
Feb 3
Last Quarter

Hourly Weather History & Observations

Time (MST) Temp. Windchill Dew Point Humidity Pressure Visibility Wind Dir Wind Speed Gust Speed Precip Events Conditions
12:55 AM 41.0 °F - 21.2 °F 45% 29.90 in 10.0 mi Calm Calm - N/A   Scattered Clouds
1:55 AM 35.6 °F - 21.2 °F 56% 29.88 in 10.0 mi Calm Calm - N/A   Scattered Clouds
2:55 AM 35.6 °F - 21.2 °F 56% 29.88 in 10.0 mi Calm Calm - N/A   Scattered Clouds
3:55 AM 35.6 °F - 21.2 °F 56% 29.85 in 10.0 mi Calm Calm - N/A   Scattered Clouds
4:55 AM 33.8 °F 27.7 °F 21.2 °F 60% 29.84 in 10.0 mi Variable 6.9 mph - N/A   Scattered Clouds
5:55 AM 35.6 °F - 19.4 °F 52% 29.85 in 10.0 mi Calm Calm - N/A   Scattered Clouds
6:55 AM 33.8 °F 30.8 °F 19.4 °F 56% 29.87 in 10.0 mi North 3.5 mph - N/A   Scattered Clouds
7:55 AM 32.0 °F 24.2 °F 21.2 °F 64% 29.90 in 10.0 mi West 9.2 mph - N/A   Partly Cloudy
8:55 AM 39.2 °F 35.9 °F 23.0 °F 52% 29.88 in 10.0 mi WNW 4.6 mph - N/A   Partly Cloudy
9:55 AM 44.6 °F 42.2 °F 23.0 °F 43% 29.88 in 10.0 mi Variable 4.6 mph - N/A   Partly Cloudy
10:55 AM 46.4 °F 43.5 °F 23.0 °F 40% 29.86 in 10.0 mi NNE 5.8 mph - N/A   Partly Cloudy
11:55 AM 48.2 °F - 21.2 °F 34% 29.83 in 10.0 mi North 4.6 mph - N/A   Partly Cloudy
12:55 PM 50.0 °F - 17.6 °F 28% 29.80 in 10.0 mi Variable 4.6 mph - N/A   Partly Cloudy
1:55 PM 53.6 °F - 15.8 °F 22% 29.76 in 10.0 mi Variable 3.5 mph - N/A   Partly Cloudy
2:55 PM 53.6 °F - 12.2 °F 19% 29.75 in 10.0 mi Calm Calm - N/A   Scattered Clouds
3:55 PM 51.8 °F - 8.6 °F 18% 29.76 in 10.0 mi ESE 4.6 mph - N/A   Mostly Cloudy
4:55 PM 53.6 °F - 6.8 °F 15% 29.77 in 10.0 mi South 11.5 mph - N/A   Mostly Cloudy
5:55 PM 44.6 °F 37.8 °F 19.4 °F 37% 29.77 in 10.0 mi WSW 15.0 mph - N/A   Mostly Cloudy
6:55 PM 41.0 °F 32.5 °F 21.2 °F 45% 29.84 in 10.0 mi WSW 17.3 mph - N/A   Overcast
7:55 PM 42.8 °F 34.8 °F 23.0 °F 46% 29.85 in 10.0 mi WSW 17.3 mph - N/A   Overcast
8:55 PM 42.8 °F 36.2 °F 23.0 °F 46% 29.88 in 10.0 mi WSW 12.7 mph - N/A   Overcast
9:55 PM 39.2 °F 33.6 °F 23.0 °F 52% 29.86 in 10.0 mi WSW 8.1 mph - N/A   Mostly Cloudy
10:55 PM 37.4 °F 32.1 °F 23.0 °F 56% 29.85 in 10.0 mi Variable 6.9 mph - N/A   Partly Cloudy
11:55 PM 35.6 °F 32.8 °F 23.0 °F 60% 29.86 in 10.0 mi Variable 3.5 mph - N/A   Scattered Clouds